DW3201 Weather Reports


time (UTC)temp
C
wind
direction
speed
KPH
gust
KPH
rain 1hr
cm
rain 24hr
cm
rain mn
cm
humidity
%
barometer
mb
20260507093054 0 0 0.0 0.0 0.00 0.00 0.00 82 1013.5
20260507091551 0 0 0.0 0.0 0.00 0.00 0.00 82 1013.5
20260507090052 0 0 0.0 0.0 0.00 0.00 0.00 84 1013.5
20260507084553 0 0 0.0 0.0 0.00 0.00 0.00 80 1013.6
20260507083052 0 0 0.0 1.6 0.00 0.00 0.00 76 1013.6
20260507081551 0 0 0.0 0.0 0.00 0.00 0.00 74 1013.6
20260507080052 0 0 0.0 0.0 0.00 0.00 0.00 73 1013.6
20260507074556 0 0 0.0 1.6 0.00 0.00 0.00 72 1013.5
20260507073053 0 266 1.6 1.6 0.00 0.00 0.00 73 1013.8
20260507071553 0 0 0.0 1.6 0.00 0.00 0.00 71 1013.8
20260507070054 1 263 0.0 0.0 0.00 0.00 0.00 72 1013.9
20260507064606 1 0 0.0 1.6 0.00 0.00 0.00 72 1014.0
20260507063056 1 0 0.0 0.0 0.00 0.00 0.00 72 1014.2
20260507061553 2 0 0.0 1.6 0.00 0.00 0.00 71 1014.4
20260507060054 2 0 0.0 1.6 0.00 0.00 0.00 65 1014.4
20260507054604 2 265 1.6 4.8 0.00 0.00 0.00 64 1014.5
20260507053051 3 269 0.0 3.2 0.00 0.00 0.00 64 1014.5
20260507051551 2 269 1.6 3.2 0.00 0.00 0.00 65 1014.5
20260507050052 2 235 1.6 3.2 0.00 0.00 0.00 66 1014.6
20260507044555 2 252 0.0 1.6 0.00 0.00 0.00 66 1014.6
20260507043100 2 262 0.0 1.6 0.00 0.00 0.00 69 1014.6
20260507041603 2 0 0.0 1.6 0.00 0.00 0.00 66 1014.5
20260507040057 3 0 0.0 0.0 0.00 0.00 0.00 66 1014.6
20260507034557 3 0 0.0 0.0 0.00 0.00 0.00 62 1014.6
20260507033053 4 0 0.0 1.6 0.00 0.00 0.00 59 1014.7
20260507031552 5 274 0.0 1.6 0.00 0.00 0.00 56 1014.8
20260507030058 5 269 0.0 4.8 0.00 0.00 0.00 53 1014.9
20260507024553 6 283 3.2 4.8 0.00 0.00 0.00 50 1014.7
20260507023108 6 276 3.2 8.0 0.00 0.00 0.00 50 1014.5
20260507021557 6 279 1.6 11.3 0.00 0.00 0.00 49 1014.3
20260507020054 7 290 6.4 14.5 0.00 0.00 0.00 47 1014.2
20260507014609 7 290 3.2 12.9 0.00 0.00 0.00 47 1014.1
20260507013112 7 280 6.4 14.5 0.00 0.00 0.00 46 1013.9
20260507011554 8 288 1.6 9.7 0.00 0.00 0.00 47 1013.5
20260507010059 8 274 6.4 17.7 0.00 0.00 0.00 46 1013.4
20260507004604 8 264 6.4 16.1 0.00 0.00 0.00 45 1013.2
20260507003052 8 288 4.8 16.1 0.00 0.00 0.00 44 1013.2
20260507001609 9 294 6.4 16.1 0.00 0.00 0.00 43 1012.9
20260507000052 9 290 4.8 16.1 0.00 0.00 0.00 43 1012.8
20260506234554 10 235 8.0 14.5 0.00 0.00 0.00 41 1012.8
20260506233102 10 274 12.9 19.3 0.00 0.00 0.00 41 1012.8
20260506231550 10 280 9.7 17.7 0.00 0.00 0.00 40 1012.6
20260506230056 10 242 6.4 16.1 0.00 0.00 0.00 40 1012.6
20260506224551 10 238 8.0 14.5 0.00 0.00 0.00 40 1012.4
20260506223105 10 294 9.7 17.7 0.00 0.00 0.00 39 1012.3
20260506221551 10 293 11.3 22.5 0.00 0.00 0.00 39 1012.2
20260506220056 11 271 9.7 20.9 0.00 0.00 0.00 38 1012.2
20260506214604 11 268 8.0 19.3 0.00 0.00 0.00 38 1012.0
20260506213051 11 288 3.2 16.1 0.00 0.00 0.00 39 1012.1
20260506211556 11 290 9.7 19.3 0.00 0.00 0.00 38 1012.0
20260506204555 11 279 4.8 16.1 0.00 0.00 0.00 39 1012.0
20260506203100 11 276 3.2 16.1 0.00 0.00 0.00 39 1012.1
20260506201552 11 248 3.2 20.9 0.00 0.00 0.00 38 1012.3
20260506200135 11 271 8.0 22.5 0.00 0.00 0.00 38 1012.4
20260506194558 11 242 6.4 16.1 0.00 0.00 0.00 37 1012.4
20260506193052 11 278 8.0 19.3 0.00 0.00 0.00 36 1012.2
20260506191552 11 277 9.7 17.7 0.00 0.00 0.00 36 1012.2
20260506190055 11 297 8.0 17.7 0.00 0.00 0.00 38 1012.4
20260506184555 11 245 8.0 22.5 0.00 0.00 0.00 37 1012.4
20260506183053 11 224 9.7 20.9 0.00 0.00 0.00 37 1012.3
20260506181554 11 281 12.9 22.5 0.00 0.00 0.00 38 1012.3
20260506174553 11 288 3.2 17.7 0.00 0.00 0.00 39 1012.5
20260506173111 11 283 8.0 17.7 0.00 0.00 0.00 38 1012.5
20260506171600 10 290 9.7 19.3 0.00 0.00 0.00 40 1012.7
20260506170052 10 270 8.0 24.1 0.00 0.00 0.00 38 1012.7
20260506164554 11 285 8.0 17.7 0.00 0.00 0.00 39 1012.8
20260506163058 11 292 6.4 17.7 0.00 0.00 0.00 40 1012.8
20260506161557 10 284 4.8 20.9 0.00 0.00 0.00 42 1012.7
20260506160107 10 288 3.2 17.7 0.00 0.00 0.00 40 1012.7
20260506154555 10 240 6.4 12.9 0.00 0.00 0.00 41 1012.6
20260506153052 10 295 8.0 19.3 0.00 0.00 0.00 39 1012.6
20260506151554 10 286 9.7 19.3 0.00 0.00 0.00 40 1012.6
20260506150055 10 268 4.8 16.1 0.00 0.00 0.00 41 1012.5
20260506144555 10 271 3.2 12.9 0.00 0.00 0.00 44 1012.7
20260506143057 9 245 6.4 16.1 0.00 0.00 0.00 43 1012.5
20260506141552 9 251 8.0 16.1 0.00 0.00 0.00 43 1012.5
20260506140051 10 287 3.2 8.0 0.00 0.00 0.00 47 1012.5
20260506134616 9 278 1.6 11.3 0.00 0.00 0.00 49 1012.4
20260506133056 8 285 1.6 8.0 0.00 0.00 0.00 50 1012.3
20260506131609 9 298 1.6 3.2 0.00 0.00 0.00 47 1012.2
20260506130053 8 266 0.0 3.2 0.00 0.00 0.00 58 1012.2
20260506124552 7 278 1.6 4.8 0.00 0.00 0.00 55 1012.1
20260506123055 6 277 1.6 6.4 0.00 0.00 0.00 58 1011.8
20260506121601 6 271 0.0 1.6 0.00 0.00 0.00 64 1011.7
20260506120053 4 271 0.0 1.6 0.00 0.00 0.00 71 1011.7
20260506114553 3 0 0.0 1.6 0.00 0.00 0.00 82 1011.7
20260506113054 2 0 0.0 0.0 0.00 0.00 0.00 84 1011.5
20260506111611 1 252 0.0 1.6 0.00 0.00 0.00 87 1011.5
20260506110057 0 0 0.0 1.6 0.00 0.00 0.00 89 1011.4
20260506104551 0 0 0.0 0.0 0.00 0.00 0.00 90 1011.0
20260506103052 0 0 0.0 1.6 0.00 0.00 0.00 89 1010.9
20260506101554 0 0 0.0 0.0 0.00 0.00 0.00 89 1010.8
20260506100054 0 0 0.0 1.6 0.00 0.00 0.00 89 1010.9
20260506094556 1 286 0.0 1.6 0.00 0.00 0.00 86 1010.8